Flag for Mauritania Weather past 2 weeks in Nouakchott, Mauritania

Now
79 °F

Passing clouds.


Feels Like: 82 °F
Forecast: N/A
Wind: 10 mph from West

Location: Nouakchott Airport

Current Time: Jul 30, 2014 at 9:33:49 PM

Latest Report: Jul 30, 2014 at 9:00 PM


Visibility: 5 mi

Pressure: 29.83 "Hg

Humidity: 79%

Dew point: 72 °F

Location of NouakchottLocation

Historic Weather in Nouakchott — Graph

°F

Nouakchott temperature yesterday

Maximum temperature yesterday: 90 °F (at 10:00 AM)
Minimum temperature yesterday: 79 °F (at 4:00 AM)
Average temperature yesterday: 83 °F

Past Weeks' High & Low Weather Summary

 TemperatureHumidityPressure
High111 °F (Jul 28, 2:30 PM)94% (Jul 20, 6:30 AM)30.04 "Hg (Jul 20, 6:30 AM)
Low73 °F (Jul 16, 6:00 AM)6% (Jul 28, 2:30 PM)29.74 "Hg (Jul 28, 4:30 PM)
Average80 °F69%29.88 "Hg
* Reported Jul 15 8:00 PM — Jul 30 8:30 PM, Nouakchott, Weather by CustomWeather, © 2014

Note: Actual official high and low records may vary slightly from our data, if they occured in-between our weather recording intervals... More about our weather records

Advertising

Nouakchott weather history for previous 24 hours

 ConditionsComfort  
Time TempWeatherWind HumidityBarometerVisibility
8:30 PM
Jul 30
79 °FPassing clouds.9 mph79%29.83 "Hg5 mi
8:00 PM79 °FPassing clouds.12 mph79%29.80 "Hg5 mi
7:30 PM79 °FPassing clouds.13 mph79%29.80 "Hg5 mi
7:00 PM81 °FPassing clouds.13 mph74%29.80 "Hg5 mi
6:30 PM81 °FPassing clouds.12 mph70%29.80 "Hg5 mi
6:00 PM81 °FScattered clouds.13 mph70%29.80 "Hg5 mi
5:30 PM82 °FPassing clouds.14 mph66%29.80 "Hg5 mi
5:00 PM84 °FPassing clouds.13 mph66%29.80 "Hg5 mi
4:30 PM86 °FPassing clouds.13 mph59%29.80 "Hg5 mi
4:00 PM86 °FPassing clouds.9 mph59%29.80 "Hg5 mi
3:30 PM86 °FPassing clouds.8 mph59%29.80 "Hg5 mi
3:00 PM84 °FPassing clouds.8 mph62%29.80 "Hg5 mi
2:30 PM84 °FPassing clouds.9 mph62%29.80 "Hg5 mi
2:00 PM84 °FPassing clouds.9 mph62%29.83 "Hg5 mi
1:30 PM84 °FPassing clouds.9 mph58%29.83 "Hg5 mi
1:00 PM84 °FPassing clouds.7 mph58%29.83 "Hg5 mi
12:30 PM84 °FPassing clouds.8 mph58%29.86 "Hg5 mi
12:00 PM82 °FPassing clouds.9 mph66%29.86 "Hg5 mi
11:30 AM82 °FPassing clouds.12 mph66%29.86 "Hg5 mi
11:00 AM82 °FPassing clouds.12 mph66%29.83 "Hg5 mi
10:30 AM82 °FPassing clouds.10 mph66%29.86 "Hg5 mi
10:00 AM82 °FPassing clouds.9 mph66%29.86 "Hg5 mi
9:30 AM81 °FClear.13 mph70%29.83 "Hg5 mi
9:00 AM81 °FClear.13 mph74%29.83 "Hg5 mi
8:30 AM79 °FClear.13 mph79%29.83 "Hg5 mi
8:00 AM79 °FClear.10 mph79%29.80 "Hg4 mi
7:30 AM79 °FScattered clouds.12 mph79%29.80 "Hg4 mi
7:00 AM77 °FScattered clouds.12 mph83%29.80 "Hg4 mi
6:30 AM77 °FClear.10 mph83%29.80 "Hg5 mi
6:00 AM77 °FClear.13 mph89%29.80 "Hg5 mi
5:30 AM79 °FClear.15 mph79%29.80 "Hg5 mi
5:00 AM79 °FClear.13 mph79%29.80 "Hg5 mi
4:30 AM79 °FClear.13 mph79%29.80 "Hg5 mi
4:00 AM79 °FClear.15 mph84%29.77 "Hg5 mi
3:30 AM79 °FClear.15 mph84%29.77 "Hg5 mi
3:00 AM79 °FClear.16 mph84%29.80 "Hg5 mi
2:30 AM79 °FClear.14 mph84%29.80 "Hg5 mi
2:00 AM79 °FClear.14 mph84%29.80 "Hg5 mi
1:30 AM79 °FClear.13 mph84%29.80 "Hg5 mi
1:00 AM79 °FClear.13 mph84%29.80 "Hg5 mi
12:30 AM79 °FClear.14 mph84%29.80 "Hg5 mi
12:00 AM79 °FClear.12 mph84%29.80 "Hg5 mi
11:30 PM
Jul 29
81 °FClear.10 mph79%29.80 "Hg5 mi
11:00 PM79 °FClear.13 mph84%29.83 "Hg5 mi
10:30 PM81 °FClear.12 mph79%29.80 "Hg5 mi
10:00 PM81 °FClear.9 mph74%29.80 "Hg5 mi
9:30 PM81 °FClear.13 mph74%29.80 "Hg5 mi
9:00 PM81 °FClear.12 mph74%29.80 "Hg5 mi
Weather by CustomWeather, © 2014

See weather overviewHow to use our weather pages